�N����,����,�~����,�C��,���x,�C��,����,���ϕ���,�ő�u�ԕ���,�ő厞����,���˗�,�I�_���x,�n�����x,�ő啗���N��,DTYPE
"20/09/30","00:10",0.0,17.9,90.2,1003.1,305.9,1.5,2.9,337.4,0.00,16.3,21.5,"00:09:52",1
"20/09/30","00:20",0.0,17.9,90.2,1003.4,299.3,1.2,2.9,319.4,0.00,16.3,21.4,"00:11:28",1
"20/09/30","00:30",0.0,17.9,90.2,1003.1,303.2,1.6,2.8,334.2,0.00,16.3,21.4,"00:24:56",1
"20/09/30","00:40",0.0,17.7,90.3,1003.4,316.4,1.3,2.1,333.3,0.00,16.1,21.5,"00:32:08",1
"20/09/30","00:50",0.0,17.7,90.4,1003.4,332.7,1.7,3.3,337.0,0.00,16.1,21.4,"00:45:28",1
"20/09/30","01:00",0.0,17.4,90.5,1003.4,327.7,1.2,2.9,330.8,0.00,15.9,21.2,"00:51:28",1
"20/09/30","01:10",0.0,17.4,90.6,1003.6,313.6,1.5,2.7,328.9,0.00,15.9,21.3,"01:00:48",1
"20/09/30","01:20",0.0,17.3,90.9,1003.1,310.4,1.6,4.0,339.7,0.00,15.8,21.3,"01:19:12",1
"20/09/30","01:30",0.0,17.5,90.9,1003.1,326.8,2.5,4.5,340.5,0.00,16.0,21.3,"01:24:40",1
"20/09/30","01:40",0.0,17.4,90.9,1003.1,328.5,1.8,3.3,334.8,0.00,15.9,21.1,"01:36:48",1
"20/09/30","01:50",0.0,17.4,91.0,1002.9,318.5,1.6,2.5,326.2,0.00,16.0,21.2,"01:48:32",1
"20/09/30","02:00",0.0,17.3,91.1,1003.1,330.4,2.2,4.4,339.9,0.00,15.9,21.1,"01:59:04",1
"20/09/30","02:10",0.0,17.5,91.1,1003.4,323.6,2.0,4.7,320.2,0.00,16.1,21.0,"02:07:36",1
"20/09/30","02:20",0.0,17.8,91.2,1003.4,326.1,2.8,4.4,323.8,0.00,16.4,20.9,"02:15:20",1
"20/09/30","02:30",0.0,17.6,91.2,1002.6,324.3,2.3,4.0,327.6,0.00,16.2,21.1,"02:20:08",1
"20/09/30","02:40",0.0,17.4,91.4,1002.9,316.8,2.1,3.4,333.9,0.00,16.0,21.1,"02:39:12",1
"20/09/30","02:50",0.0,17.3,91.4,1002.6,316.2,2.1,3.5,335.5,0.00,15.9,20.8,"02:41:04",1
"20/09/30","03:00",0.0,17.0,91.5,1002.2,272.3,1.3,2.2,290.3,0.00,15.6,20.9,"02:58:16",1
"20/09/30","03:10",0.0,16.9,91.6,1002.4,254.1,0.5,1.2,261.9,0.00,15.6,20.7,"03:00:24",1
"20/09/30","03:20",0.0,16.7,91.8,1002.4,272.1,0.6,1.2,251.0,0.00,15.4,20.7,"03:18:00",1
"20/09/30","03:30",0.0,16.3,91.8,1002.4,293.5,0.5,1.1,316.3,0.00,15.0,20.8,"03:20:02",1
"20/09/30","03:40",0.0,15.9,92.0,1002.4,292.6,0.8,1.4,310.4,0.00,14.6,20.7,"03:36:24",1
"20/09/30","03:50",0.0,15.8,92.3,1002.2,313.3,0.6,1.2,315.7,0.00,14.6,20.7,"03:46:48",1
"20/09/30","04:00",0.0,16.2,92.6,1002.4,319.8,1.2,2.5,323.5,0.00,15.0,20.4,"03:59:04",1
"20/09/30","04:10",0.0,16.6,92.5,1002.4,330.1,1.8,2.9,337.3,0.00,15.4,20.6,"04:04:24",1
"20/09/30","04:20",0.0,16.6,92.8,1001.9,341.0,1.6,3.3,339.2,0.00,15.5,20.5,"04:16:40",1
"20/09/30","04:30",0.0,16.3,92.9,1001.9,325.9,1.6,2.2,328.5,0.00,15.2,20.3,"04:27:12",1
"20/09/30","04:40",0.0,16.2,93.1,1002.2,292.8,1.0,2.2,320.4,0.00,15.1,20.5,"04:33:04",1
"20/09/30","04:50",0.0,16.0,93.2,1002.4,314.0,1.2,1.9,334.9,0.00,14.9,20.3,"04:48:48",1
"20/09/30","05:00",0.0,16.0,93.4,1002.4,324.7,1.8,3.1,332.7,0.00,15.0,20.4,"04:52:56",1
"20/09/30","05:10",0.0,16.1,93.7,1002.2,326.5,1.7,3.5,301.3,0.00,15.1,20.2,"05:09:44",1
"20/09/30","05:20",0.0,16.4,93.7,1002.4,331.4,1.8,4.2,339.6,0.00,15.4,20.3,"05:19:28",1
"20/09/30","05:30",0.0,16.2,93.8,1002.2,333.8,1.7,3.6,335.8,0.00,15.2,20.3,"05:29:12",1
"20/09/30","05:40",0.0,16.3,94.0,1002.4,327.9,2.1,4.0,334.4,0.00,15.4,20.3,"05:37:52",1
"20/09/30","05:50",0.0,16.5,94.0,1002.9,333.7,2.2,3.9,312.8,0.00,15.6,20.2,"05:40:40",1
"20/09/30","06:00",0.0,16.5,94.1,1002.9,335.5,2.2,4.3,330.8,0.00,15.6,20.1,"05:58:32",1
"20/09/30","06:10",0.0,16.6,94.2,1003.1,329.7,2.2,3.7,345.7,0.00,15.7,20.2,"06:04:00",1
"20/09/30","06:20",0.0,16.5,94.3,1003.1,330.6,2.0,4.1,338.8,0.00,15.6,20.2,"06:14:48",1
"20/09/30","06:30",0.0,16.7,94.4,1003.4,329.5,1.8,3.6,333.6,0.00,15.8,20.2,"06:29:12",1
"20/09/30","06:40",0.0,16.6,94.4,1003.4,340.8,1.7,3.2,332.2,0.01,15.7,20.2,"06:37:12",1
"20/09/30","06:50",0.0,16.9,94.3,1003.4,339.1,1.2,2.6,338.2,0.01,16.0,20.4,"06:40:56",1
"20/09/30","07:00",0.0,17.4,94.2,1003.6,340.9,1.0,2.0,338.4,0.03,16.5,20.1,"06:51:04",1
"20/09/30","07:10",0.0,17.8,93.8,1003.6,343.2,0.8,2.0,336.8,0.04,16.8,20.2,"07:05:52",1
"20/09/30","07:20",0.0,18.1,93.5,1003.6,333.7,0.8,1.6,318.5,0.07,17.1,20.4,"07:16:40",1
"20/09/30","07:30",0.0,18.5,93.2,1003.8,318.0,1.0,1.6,318.6,0.08,17.4,20.5,"07:27:44",1
"20/09/30","07:40",0.0,18.6,92.6,1003.8,289.4,1.0,1.4,295.7,0.08,17.4,20.6,"07:39:28",1
"20/09/30","07:50",0.0,18.8,92.3,1003.8,308.7,1.2,2.5,333.4,0.13,17.6,20.8,"07:45:04",1
"20/09/30","08:00",0.0,19.0,91.5,1003.6,318.2,1.3,2.7,339.8,0.14,17.6,20.7,"07:53:20",1
"20/09/30","08:10",0.0,19.1,90.6,1003.6,315.6,1.3,2.7,308.2,0.11,17.6,20.8,"08:05:28",1
"20/09/30","08:20",0.0,19.2,90.4,1003.6,326.6,1.8,3.3,334.3,0.19,17.6,20.7,"08:18:00",1
"20/09/30","08:30",0.0,19.8,88.9,1003.1,356.4,1.2,2.4,342.3,0.27,18.0,21.0,"08:25:04",1
"20/09/30","08:40",0.0,20.4,87.0,1002.9,334.9,0.6,2.0,334.9,0.18,18.2,21.1,"08:37:52",1
"20/09/30","08:50",0.0,20.6,85.6,1002.9,324.6,1.0,3.4,342.4,0.22,18.1,21.4,"08:47:12",1
"20/09/30","09:00",0.0,21.2,83.5,1002.6,280.6,1.0,2.8,229.6,0.26,18.3,21.3,"08:53:20",1
"20/09/30","09:10",0.0,21.1,82.2,1002.6,262.3,0.7,2.0,233.7,0.16,18.0,21.2,"09:04:48",1
"20/09/30","09:20",0.0,21.6,81.1,1002.6,299.6,0.7,1.8,337.7,0.25,18.3,21.6,"09:12:40",1
"20/09/30","09:30",0.0,21.7,80.1,1002.4,325.8,1.1,2.6,347.7,0.23,18.2,21.8,"09:23:52",1
"20/09/30","09:40",0.0,21.9,79.0,1002.4,299.8,0.8,1.9,342.1,0.23,18.1,21.9,"09:32:16",1
"20/09/30","09:50",0.0,22.2,78.3,1002.4,321.9,1.1,2.5,17.3,0.30,18.3,22.0,"09:49:12",1
"20/09/30","10:00",0.0,22.7,76.9,1002.2,328.7,1.6,4.0,346.4,0.40,18.5,22.4,"09:59:44",1
"20/09/30","10:10",0.0,23.4,74.9,1001.9,337.4,1.5,3.6,331.2,0.48,18.7,22.5,"10:00:32",1
"20/09/30","10:20",0.0,23.8,73.0,1001.5,294.6,0.8,2.0,320.3,0.32,18.7,22.8,"10:12:56",1
"20/09/30","10:30",0.0,24.0,70.9,1001.7,239.5,1.1,2.9,228.0,0.29,18.4,22.8,"10:29:12",1
"20/09/30","10:40",0.0,24.2,69.9,1001.7,263.6,1.2,2.8,232.3,0.25,18.4,22.9,"10:32:00",1
"20/09/30","10:50",0.0,24.1,69.0,1001.9,260.8,1.3,4.3,232.3,0.29,18.1,23.2,"10:47:36",1
"20/09/30","11:00",0.0,24.5,70.0,1001.2,291.3,1.2,2.9,352.3,0.39,18.7,23.2,"10:58:08",1
"20/09/30","11:10",0.0,24.7,67.8,1001.0,245.9,1.3,3.4,225.6,0.41,18.4,23.4,"11:04:16",1
"20/09/30","11:20",0.0,25.0,67.6,1001.2,248.3,1.1,3.1,226.7,0.38,18.6,23.5,"11:14:56",1
"20/09/30","11:30",0.0,25.2,67.1,1000.5,238.6,1.3,3.4,216.3,0.40,18.7,24.0,"11:23:36",1
"20/09/30","11:40",0.0,25.4,66.4,1000.5,239.3,2.0,4.8,198.0,0.50,18.7,24.1,"11:38:56",1
"20/09/30","11:50",0.0,26.0,65.3,1000.3,217.3,1.3,3.6,229.0,0.54,19.0,24.3,"11:44:08",1
"20/09/30","12:00",0.0,26.3,62.8,1000.8,166.1,1.2,3.2,205.9,0.49,18.7,24.5,"11:51:36",1
"20/09/30","12:10",0.0,26.1,61.8,1001.0,209.5,0.8,2.8,240.0,0.22,18.2,24.4,"12:07:04",1
"20/09/30","12:20",0.0,25.6,63.6,1000.5,257.2,1.5,3.9,221.9,0.26,18.2,24.6,"12:16:56",1
"20/09/30","12:30",0.0,25.0,65.7,999.8,225.9,1.8,4.4,228.0,0.15,18.2,24.7,"12:21:36",1
"20/09/30","12:40",0.0,25.0,65.6,1000.3,238.3,1.6,3.3,227.0,0.20,18.2,24.5,"12:36:48",1
"20/09/30","12:50",0.0,25.0,64.5,1000.0,257.8,1.7,4.4,235.2,0.18,17.9,24.6,"12:41:12",1
"20/09/30","13:00",0.0,24.7,65.2,1000.0,271.2,1.5,3.2,231.7,0.11,17.8,24.3,"12:53:36",1
"20/09/30","13:10",0.0,24.7,65.6,1000.0,257.9,1.2,3.1,232.1,0.18,17.9,24.4,"13:02:40",1
"20/09/30","13:20",0.0,25.0,65.5,999.8,277.5,1.1,2.8,277.2,0.17,18.1,24.3,"13:18:48",1
"20/09/30","13:30",0.0,24.7,64.9,1000.3,287.9,1.5,2.9,249.7,0.16,17.7,24.5,"13:26:00",1
"20/09/30","13:40",0.0,24.8,65.5,1000.0,275.7,1.1,3.9,235.5,0.17,17.9,24.4,"13:38:32",1
"20/09/30","13:50",0.0,25.0,65.9,999.6,283.7,1.2,2.8,298.9,0.17,18.2,24.2,"13:47:28",1
"20/09/30","14:00",0.0,25.1,65.9,999.6,282.2,1.1,2.5,335.2,0.16,18.3,24.2,"13:50:40",1
"20/09/30","14:10",0.0,25.0,65.2,999.8,269.7,1.0,2.4,270.2,0.16,18.1,24.3,"14:03:12",1
"20/09/30","14:20",0.0,25.3,64.1,1000.0,326.0,1.2,3.6,352.8,0.16,18.1,24.5,"14:18:56",1
"20/09/30","14:30",0.0,25.2,64.8,1000.0,321.3,1.5,3.1,335.3,0.16,18.1,24.3,"14:25:36",1
"20/09/30","14:40",0.0,25.0,63.4,999.8,335.3,1.2,3.5,345.8,0.14,17.6,24.2,"14:39:04",1
"20/09/30","14:50",0.0,24.7,61.1,999.6,350.6,1.7,5.7,332.1,0.11,16.7,24.2,"14:48:56",1
"20/09/30","15:00",0.0,24.4,61.4,999.3,336.1,2.2,4.3,346.2,0.11,16.5,24.4,"14:58:40",1
"20/09/30","15:10",0.0,24.4,63.0,999.3,339.1,2.1,4.0,338.5,0.11,16.9,24.2,"15:08:24",1
"20/09/30","15:20",0.0,24.5,64.7,999.1,335.4,1.3,2.9,340.3,0.10,17.5,24.1,"15:10:08",1
"20/09/30","15:30",0.0,24.3,63.9,999.6,348.1,1.8,4.2,322.1,0.11,17.1,24.2,"15:24:48",1
"20/09/30","15:40",0.0,24.4,64.4,999.8,348.2,1.8,3.6,351.1,0.12,17.3,24.2,"15:32:08",1
"20/09/30","15:50",0.0,24.3,65.1,999.8,338.2,1.6,3.3,324.2,0.09,17.4,24.1,"15:41:36",1
"20/09/30","16:00",0.0,24.2,66.1,999.8,337.7,1.3,2.4,345.1,0.07,17.5,24.0,"15:58:16",1
"20/09/30","16:10",0.0,23.7,66.1,1000.3,340.4,1.3,2.4,341.0,0.03,17.0,24.1,"16:09:36",1
"20/09/30","16:20",0.0,23.4,67.1,1000.3,335.3,1.7,3.7,341.2,0.02,17.0,23.9,"16:18:56",1
"20/09/30","16:30",0.0,23.3,67.6,1000.0,327.8,1.8,3.4,307.3,0.02,17.0,23.7,"16:28:00",1
"20/09/30","16:40",0.0,23.2,68.2,1000.3,324.8,1.7,2.8,343.6,0.01,17.1,23.5,"16:32:16",1
"20/09/30","16:50",0.0,22.9,69.0,1000.5,324.4,1.8,4.3,339.5,0.01,17.0,23.8,"16:48:32",1
"20/09/30","17:00",0.0,22.8,69.9,1000.0,329.6,2.2,4.0,342.0,0.00,17.1,23.5,"16:56:32",1
"20/09/30","17:10",0.0,22.4,70.4,1000.5,331.4,2.1,4.2,332.8,0.00,16.8,23.7,"17:06:28",1
"20/09/30","17:20",0.0,22.4,70.3,1000.8,337.2,2.0,3.7,334.8,0.00,16.8,23.5,"17:10:40",1
"20/09/30","17:30",0.0,22.4,70.1,1001.2,325.0,2.1,3.9,337.3,0.00,16.7,23.5,"17:23:36",1
"20/09/30","17:40",0.0,22.2,70.2,1001.2,327.8,2.5,4.2,327.3,0.00,16.6,23.4,"17:37:44",1
"20/09/30","17:50",0.0,22.0,70.4,1001.2,333.8,1.7,3.1,339.2,0.00,16.4,23.2,"17:40:08",1
"20/09/30","18:00",0.0,21.9,71.1,1001.2,332.6,1.2,2.1,345.9,0.00,16.5,23.3,"17:56:24",1
"20/09/30","18:10",0.0,21.7,72.4,1001.7,313.0,1.1,1.4,331.1,0.00,16.6,23.0,"18:03:52",1
"20/09/30","18:20",0.0,21.5,73.5,1001.7,320.2,1.2,2.0,336.6,0.00,16.6,23.1,"18:17:28",1
"20/09/30","18:30",0.0,21.5,74.3,1001.7,337.5,1.2,2.4,337.5,0.00,16.8,23.0,"18:20:16",1
"20/09/30","18:40",0.0,21.2,74.8,1001.7,333.8,1.3,2.4,345.1,0.00,16.6,22.9,"18:36:48",1
"20/09/30","18:50",0.0,21.2,75.2,1001.7,298.3,1.0,2.1,314.8,0.00,16.7,23.0,"18:43:04",1
"20/09/30","19:00",0.0,21.2,75.6,1001.7,318.5,1.6,3.6,319.2,0.00,16.8,23.0,"18:57:04",1
"20/09/30","19:10",0.0,21.2,75.6,1001.7,329.1,2.1,4.1,326.1,0.00,16.8,22.7,"19:02:16",1
"20/09/30","19:20",0.0,21.1,75.6,1001.9,322.1,1.6,2.7,333.5,0.00,16.7,22.7,"19:10:56",1
"20/09/30","19:30",0.0,21.0,75.8,1002.2,313.6,1.1,1.8,322.8,0.00,16.6,22.7,"19:27:44",1
"20/09/30","19:40",0.0,21.0,76.1,1002.6,313.8,1.1,2.0,336.9,0.00,16.7,22.8,"19:30:48",1
"20/09/30","19:50",0.0,21.0,76.6,1002.4,310.9,1.2,2.2,332.6,0.00,16.8,22.6,"19:40:40",1
"20/09/30","20:00",0.0,20.7,77.5,1002.2,324.5,1.1,2.0,320.0,0.00,16.7,22.7,"19:50:16",1
"20/09/30","20:10",0.0,20.4,78.6,1002.2,295.8,1.1,1.7,318.1,0.00,16.6,22.6,"20:07:44",1
"20/09/30","20:20",0.0,20.1,80.0,1002.4,303.3,1.0,1.6,323.7,0.00,16.6,22.4,"20:11:36",1
"20/09/30","20:30",0.0,20.1,80.7,1002.4,315.5,1.2,2.4,324.8,0.00,16.7,22.2,"20:23:28",1
"20/09/30","20:40",0.0,20.2,81.1,1002.2,316.3,1.3,2.7,347.9,0.00,16.9,22.4,"20:35:44",1
"20/09/30","20:50",0.0,20.4,80.8,1002.4,322.6,1.6,3.9,347.3,0.00,17.0,22.3,"20:48:24",1
"20/09/30","21:00",0.0,20.5,80.5,1002.6,332.1,1.3,2.5,357.2,0.00,17.1,22.2,"20:56:08",1
"20/09/30","21:10",0.0,20.6,80.2,1002.6,347.7,1.3,3.3,350.6,0.00,17.1,22.2,"21:01:44",1
"20/09/30","21:20",0.0,20.7,80.3,1002.4,303.6,1.3,2.4,329.7,0.00,17.2,22.2,"21:18:24",1
"20/09/30","21:30",0.0,20.8,80.0,1002.4,304.5,1.5,3.2,329.2,0.00,17.3,22.4,"21:24:40",1
"20/09/30","21:40",0.0,20.8,79.9,1002.9,320.4,1.5,2.1,331.0,0.00,17.2,22.2,"21:30:16",1
"20/09/30","21:50",0.0,20.7,80.1,1002.9,316.9,1.1,2.0,330.2,0.00,17.2,22.2,"21:49:36",1
"20/09/30","22:00",0.0,20.6,80.4,1002.9,303.3,1.1,1.7,335.0,0.00,17.1,22.2,"21:50:24",1
"20/09/30","22:10",0.0,20.6,80.9,1002.9,328.9,1.0,1.9,341.7,0.00,17.2,22.2,"22:03:20",1
"20/09/30","22:20",0.0,20.5,81.4,1003.1,326.8,1.2,1.7,329.3,0.00,17.2,22.2,"22:16:24",1
"20/09/30","22:30",0.0,20.3,82.1,1002.9,327.2,1.0,2.0,340.1,0.00,17.2,21.9,"22:21:52",1
"20/09/30","22:40",0.0,20.3,82.7,1003.1,344.4,0.8,1.6,303.4,0.00,17.3,21.8,"22:35:52",1
"20/09/30","22:50",0.0,20.1,83.4,1003.1,320.8,1.2,1.9,323.6,0.00,17.2,22.0,"22:43:36",1
"20/09/30","23:00",0.0,20.0,84.2,1003.1,325.0,1.2,1.7,334.1,0.00,17.3,22.2,"22:59:44",1
"20/09/30","23:10",0.0,19.9,84.6,1003.4,311.2,1.0,1.4,339.6,0.00,17.3,22.2,"23:00:16",1
"20/09/30","23:20",0.0,20.1,85.1,1003.8,321.9,1.3,2.0,329.9,0.00,17.6,22.0,"23:12:00",1
"20/09/30","23:30",0.2,20.0,85.4,1003.6,295.7,0.8,1.9,332.5,0.00,17.5,21.9,"23:20:16",1
"20/09/30","23:40",0.2,19.9,85.9,1003.8,295.9,1.2,2.1,336.5,0.00,17.5,22.0,"23:31:12",1
"20/09/30","23:50",0.4,19.7,86.6,1003.8,282.0,0.8,2.0,331.0,0.00,17.4,21.8,"23:41:44",1
"20/09/30","24:00",0.2,19.5,86.9,1004.1,299.9,0.8,1.4,256.9,0.00,17.3,21.8,"23:52:48",1
